Weather History for KOSC - October, 2013

Change the Weather History Date:

Friday, October 25, 2013

  Actual Average Record
Temperature  
Mean Temperature 40 °F -  
Max Temperature 48 °F 51 °F 75 °F (2012)
Min Temperature 31 °F 36 °F 26 °F (2006)
Degree Days  
Heating Degree Days 26    
Moisture  
Dew Point 30 °F    
Average Humidity 73    
Maximum Humidity 99    
Minimum Humidity 44    
Precipitation  
Precipitation 0.00 in - - ()
Sea Level Pressure  
Sea Level Pressure 30.12 in    
Wind  
Wind Speed 9 mph (WSW)    
Max Wind Speed 18 mph    
Max Gust Speed 29 mph    
Visibility 10 miles    
Events      
Averages and records for this station are not official NWS values.
T = Trace of Precipitation, MM = Missing Value Source: NWS Daily Summary

Daily Weather History Graph

Daily Weather History Graph

Search for Another Location

Airport or City:

Trip Planner

Search our weather history database for the weather conditions in past years. The results will help you decide how hot, cold, wet, or windy it might be!

Date:

Astronomy

Oct. 25, 2013 Rise Set
Actual Time 8:01 AM EDT 6:32 PM EDT
Civil Twilight 7:32 AM EDT 7:02 PM EDT
Nautical Twilight 6:58 AM EDT 7:36 PM EDT
Astronomical Twilight 6:24 AM EDT 8:10 PM EDT
Moon 11:48 PM EDT (10/25) 1:45 PM EDT (10/25)
Length of Visible Light 11h 30m
Length of Day
10h 30m
Waning Gibbous, 62% of the Moon is Illuminated
Oct 25
Waning Gibbous
Oct 26
Last Quarter
Nov 3
New
Nov 10
First Quarter
Nov 17
Full

Hourly Weather History & Observations

Time (EDT) Temp. Windchill Dew Point Humidity Pressure Visibility Wind Dir Wind Speed Gust Speed Precip Events Conditions
12:13 AM 34.0 °F 28.0 °F 32.9 °F 96% 30.10 in 10.0 mi NW 6.9 mph - N/A   Clear
12:34 AM 34.2 °F 27.5 °F 32.9 °F 95% 30.10 in 10.0 mi WNW 8.1 mph - N/A   Clear
12:53 AM 34.0 °F 28.0 °F 32.9 °F 96% 30.10 in 10.0 mi WNW 6.9 mph - N/A   Clear
1:13 AM 33.8 °F 27.7 °F 32.4 °F 94% 30.11 in 10.0 mi WNW 6.9 mph - N/A   Clear
1:34 AM 33.3 °F 27.9 °F 32.0 °F 95% 30.11 in 10.0 mi WNW 5.8 mph - N/A   Clear
1:53 AM 32.2 °F 26.7 °F 31.8 °F 99% 30.12 in 10.0 mi WNW 5.8 mph - N/A   Clear
2:13 AM 32.9 °F 26.7 °F 32.0 °F 96% 30.12 in 10.0 mi WNW 6.9 mph - N/A   Clear
2:34 AM 32.2 °F 26.7 °F 31.8 °F 99% 30.13 in 10.0 mi West 5.8 mph - N/A   Clear
2:53 AM 32.0 °F 25.6 °F 31.8 °F 99% 30.13 in 10.0 mi West 6.9 mph - N/A   Clear
3:13 AM 32.0 °F 26.4 °F 31.3 °F 97% 30.13 in 10.0 mi West 5.8 mph - N/A   Clear
3:34 AM 31.8 °F 26.2 °F 31.1 °F 97% 30.13 in 10.0 mi WNW 5.8 mph - N/A   Clear
3:53 AM 31.6 °F 25.1 °F 30.9 °F 97% 30.13 in 10.0 mi West 6.9 mph - N/A   Clear
4:13 AM 31.8 °F 25.4 °F 31.1 °F 97% 30.14 in 10.0 mi West 6.9 mph - N/A   Clear
4:34 AM 32.4 °F 24.6 °F 32.0 °F 99% 30.14 in 10.0 mi West 9.2 mph - N/A   Clear
4:53 AM 32.5 °F 25.5 °F 32.0 °F 98% 30.15 in 10.0 mi West 8.1 mph - N/A   Clear
5:13 AM 32.9 °F 25.9 °F 32.0 °F 96% 30.15 in 10.0 mi West 8.1 mph - N/A   Mostly Cloudy
5:34 AM 32.5 °F 24.2 °F 31.8 °F 97% 30.15 in 10.0 mi West 10.4 mph - N/A   Scattered Clouds
5:53 AM 32.4 °F 26.0 °F 31.6 °F 97% 30.16 in 10.0 mi West 6.9 mph - N/A   Clear
6:13 AM 32.0 °F 24.8 °F 31.1 °F 96% 30.17 in 10.0 mi West 8.1 mph - N/A   Clear
6:34 AM 32.5 °F 23.7 °F 32.0 °F 98% 30.18 in 10.0 mi WNW 11.5 mph - N/A   Clear
6:53 AM 32.2 °F 23.8 °F 31.6 °F 98% 30.19 in 10.0 mi WNW 10.4 mph - N/A   Clear
7:13 AM 32.0 °F 24.2 °F 31.3 °F 97% 30.20 in 10.0 mi WNW 9.2 mph - N/A   Scattered Clouds
7:34 AM 32.5 °F 24.8 °F 31.8 °F 97% 30.20 in 10.0 mi WNW 9.2 mph - N/A   Overcast
7:53 AM 32.4 °F 26.9 °F 31.6 °F 97% 30.20 in 10.0 mi West 5.8 mph - N/A   Overcast
8:13 AM 32.0 °F 24.8 °F 31.5 °F 98% 30.21 in 10.0 mi West 8.1 mph - N/A   Mostly Cloudy
8:34 AM 32.0 °F 26.4 °F 31.5 °F 98% 30.22 in 10.0 mi West 5.8 mph - N/A   Scattered Clouds
8:53 AM 32.9 °F 28.5 °F 32.0 °F 96% 30.22 in 10.0 mi WNW 4.6 mph - N/A   Mostly Cloudy
9:13 AM 32.9 °F 27.5 °F 32.0 °F 96% 30.22 in 10.0 mi West 5.8 mph - N/A   Scattered Clouds
9:34 AM 35.8 °F 29.4 °F 33.8 °F 92% 30.23 in 10.0 mi WNW 8.1 mph - N/A   Clear
9:53 AM 37.6 °F 32.3 °F 34.7 °F 89% 30.23 in 10.0 mi WNW 6.9 mph - N/A   Clear
10:14 AM 40.1 °F 34.1 °F 35.8 °F 85% 30.23 in 10.0 mi West 9.2 mph - N/A   Clear
10:33 AM 41.9 °F 36.9 °F 36.0 °F 79% 30.23 in 10.0 mi West 8.1 mph - N/A   Clear
10:53 AM 42.6 °F 36.8 °F 35.2 °F 75% 30.22 in 10.0 mi West 10.4 mph - N/A   Clear
11:14 AM 44.1 °F 38.1 °F 36.0 °F 73% 30.22 in 10.0 mi West 11.5 mph 16.1 mph N/A   Clear
11:33 AM 43.9 °F 38.3 °F 34.9 °F 71% 30.21 in 10.0 mi West 10.4 mph - N/A   Clear
11:53 AM 45.5 °F 39.9 °F 33.8 °F 64% 30.21 in 10.0 mi West 11.5 mph - N/A   Scattered Clouds
12:14 PM 45.3 °F 39.3 °F 33.1 °F 62% 30.21 in 10.0 mi West 12.7 mph 17.3 mph N/A   Scattered Clouds
12:33 PM 45.3 °F 41.1 °F 32.9 °F 62% 30.20 in 10.0 mi WSW 8.1 mph - N/A   Scattered Clouds
12:53 PM 47.3 °F - 32.2 °F 56% 30.20 in 10.0 mi West 11.5 mph 20.7 mph N/A   Mostly Cloudy
1:14 PM 44.6 °F 38.4 °F 30.2 °F 57% 30.19 in 10.0 mi West 12.7 mph - N/A   Mostly Cloudy
1:33 PM 45.3 °F 40.6 °F 30.7 °F 57% 30.18 in 10.0 mi West 9.2 mph - N/A   Mostly Cloudy
1:53 PM 45.3 °F 40.6 °F 30.7 °F 57% 30.18 in 10.0 mi West 9.2 mph - N/A   Overcast
2:14 PM 45.3 °F 40.1 °F 31.3 °F 58% 30.17 in 10.0 mi WSW 10.4 mph - N/A   Overcast
2:33 PM 46.2 °F 40.5 °F 30.6 °F 54% 30.16 in 10.0 mi WSW 12.7 mph 19.6 mph N/A   Overcast
2:53 PM 45.5 °F 39.2 °F 30.6 °F 56% 30.15 in 10.0 mi West 13.8 mph - N/A   Overcast
3:14 PM 47.3 °F - 30.4 °F 52% 30.15 in 10.0 mi WSW 12.7 mph 18.4 mph N/A   Mostly Cloudy
3:33 PM 47.8 °F - 28.2 °F 47% 30.14 in 10.0 mi WSW 11.5 mph 20.7 mph N/A   Scattered Clouds
3:53 PM 48.9 °F - 27.9 °F 44% 30.13 in 10.0 mi WSW 17.3 mph 21.9 mph N/A   Mostly Cloudy
4:14 PM 46.2 °F 40.5 °F 28.0 °F 49% 30.13 in 10.0 mi SW 12.7 mph - N/A   Overcast
4:33 PM 46.4 °F 41.5 °F 27.9 °F 48% 30.12 in 10.0 mi SW 10.4 mph - N/A   Overcast
4:53 PM 45.5 °F 38.9 °F 26.8 °F 48% 30.11 in 10.0 mi WSW 15.0 mph 24.2 mph N/A   Overcast
5:14 PM 45.9 °F 39.7 °F 27.1 °F 48% 30.10 in 10.0 mi WSW 13.8 mph - N/A   Overcast
5:33 PM 46.8 °F - 25.9 °F 44% 30.11 in 10.0 mi WSW 18.4 mph - N/A   Overcast
5:53 PM 44.6 °F 39.2 °F 26.4 °F 49% 30.10 in 10.0 mi WSW 10.4 mph - N/A   Overcast
6:13 PM 43.7 °F 39.1 °F 26.6 °F 51% 30.08 in 10.0 mi SW 8.1 mph - N/A   Scattered Clouds
6:33 PM 43.5 °F 38.3 °F 26.8 °F 52% 30.08 in 10.0 mi SW 9.2 mph - N/A   Mostly Cloudy
6:54 PM 42.8 °F 37.5 °F 27.0 °F 54% 30.07 in 10.0 mi SW 9.2 mph - N/A   Overcast
7:13 PM 42.8 °F 36.2 °F 25.7 °F 51% 30.06 in 10.0 mi SW 12.7 mph - N/A   Mostly Cloudy
7:33 PM 42.6 °F 36.3 °F 25.9 °F 52% 30.06 in 10.0 mi SW 11.5 mph - N/A   Mostly Cloudy
7:54 PM 42.8 °F 36.6 °F 25.9 °F 51% 30.05 in 10.0 mi SW 11.5 mph - N/A   Mostly Cloudy
8:13 PM 42.8 °F 37.5 °F 26.2 °F 52% 30.04 in 10.0 mi SSW 9.2 mph - N/A   Overcast
8:33 PM 42.8 °F 36.6 °F 26.6 °F 53% 30.04 in 10.0 mi SW 11.5 mph - N/A   Overcast
8:54 PM 42.8 °F 37.5 °F 27.0 °F 54% 30.03 in 10.0 mi SSW 9.2 mph - N/A   Overcast
9:13 PM 42.8 °F 35.8 °F 26.6 °F 53% 30.02 in 10.0 mi SW 13.8 mph - N/A   Overcast
9:33 PM 42.4 °F 36.1 °F 26.2 °F 53% 30.01 in 10.0 mi SW 11.5 mph 17.3 mph N/A   Overcast
9:54 PM 42.4 °F 35.7 °F 25.7 °F 52% 29.99 in 10.0 mi SSW 12.7 mph - N/A   Overcast
10:13 PM 42.4 °F 34.7 °F 26.2 °F 53% 29.97 in 10.0 mi South 16.1 mph 21.9 mph N/A   Overcast
10:33 PM 42.6 °F 34.9 °F 27.5 °F 55% 29.96 in 10.0 mi SSW 16.1 mph 24.2 mph N/A   Overcast
10:54 PM 42.8 °F 35.1 °F 29.1 °F 58% 29.95 in 10.0 mi SSW 16.1 mph 23.0 mph N/A   Overcast
11:13 PM 43.2 °F 35.6 °F 29.7 °F 59% 29.93 in 10.0 mi SSW 16.1 mph 26.5 mph N/A   Overcast
11:34 PM 43.0 °F 34.8 °F 29.7 °F 59% 29.92 in 10.0 mi SW 18.4 mph 28.8 mph N/A   Overcast
11:53 PM 42.8 °F 34.8 °F 29.7 °F 60% 29.90 in 10.0 mi SSW 17.3 mph 24.2 mph N/A   Overcast